User: anonymous   Login
Location: Clinton NY
(43.0598°N, 75.3602°W)
Time: 14:36:02
(UTC-04:00)
Language:

Iridium 11 - Orbit

View from above orbital plane
View from above orbital plane
View from above satellite
View from above satellite

Ground track
Ground track

The orbit data is extracted from the following two-line orbital elements,

1 25578U 98074B   16205.51008508  .00000007  00000-0 -44593-5 0  9994
2 25578  86.3939  33.0066 0002049  87.4501 327.0095 14.34216962930292
Epoch (UTC): 23 July 2016 12:14:31
Eccentricity: 0.0002049
inclination: 86.3939°
perigee height: 776 km
apogee height: 779 km
right ascension of ascending node: 33.0066°
argument of perigee: 87.4501°
revolutions per day: 14.34216962
mean anomaly at epoch: 327.0095°
orbit number at epoch: 93029

The dashed part of the orbit path shows where the satellite is in the earth's shadow,  

DLR